Weather History for Bettles, AK

Change the Weather History Date:

Thursday, October 27, 2011

  Actual Average Record
Temperature  
Mean Temperature 18 °F -  
Max Temperature 25 °F 17 °F 35 °F (2013)
Min Temperature 10 °F 3 °F -31 °F (2008)
Degree Days  
Heating Degree Days 48    
Moisture  
Dew Point 17 °F    
Average Humidity 86    
Maximum Humidity 93    
Minimum Humidity 78    
Precipitation  
Precipitation 0.01 in - - ()
Snow  
Snow 0.00 in - - ()
Snow Depth 9.00 in    
Sea Level Pressure  
Sea Level Pressure 29.63 in    
Wind  
Wind Speed 4 mph (East)    
Max Wind Speed 9 mph    
Max Gust Speed -    
Visibility 8 miles    
Events Snow    
Averages and records for this station are not official NWS values.
T = Trace of Precipitation, MM = Missing Value Source: NWS Daily Summary

Daily Weather History Graph

Daily Weather History Graph

Search for Another Location

Airport:

Trip Planner

Search our weather history database for the weather conditions in past years. The results will help you decide how hot, cold, wet, or windy it might be!

Date:

Astronomy

Oct. 27, 2011 Rise Set
Actual Time 9:49 AM AKDT 5:49 PM AKDT
Civil Twilight 8:50 AM AKDT 6:48 PM AKDT
Nautical Twilight 7:47 AM AKDT 7:50 PM AKDT
Astronomical Twilight 6:46 AM AKDT 8:51 PM AKDT
Moon 12:30 PM AKDT (10/27) 4:56 PM AKDT (10/27)
Length of Visible Light 9h 57m
Length of Day
8h 00m
New Moon, 2% of the Moon is Illuminated
Oct 27
New Moon
Nov 2
First Quarter
Nov 10
Full
Nov 18
Last Quarter
Nov 24
New

Hourly Weather History & Observations

Time (AKDT) Temp. Windchill Dew Point Humidity Pressure Visibility Wind Dir Wind Speed Gust Speed Precip Events Conditions
12:00 AM 24.8 °F 17.9 °F 23.0 °F 93% 29.55 in 2.5 mi SE 5.8 mph - 0.00 in Snow Light Snow
12:12 AM 24.8 °F 17.9 °F 23.0 °F 93% 29.55 in 4.0 mi SE 5.8 mph - 0.00 in Snow Light Snow
12:53 AM 25.0 °F 19.3 °F 21.9 °F 88% 29.61 in 2.5 mi ESE 4.6 mph - N/A Snow Light Snow
1:01 AM 24.8 °F 16.9 °F 21.2 °F 86% 29.56 in 3.0 mi SE 6.9 mph - 0.00 in Snow Light Snow
1:14 AM 24.8 °F 20.5 °F 21.2 °F 86% 29.57 in 2.0 mi SE 3.5 mph - 0.01 in Snow Light Snow
1:27 AM 24.8 °F 17.9 °F 21.2 °F 86% 29.57 in 4.0 mi SE 5.8 mph - 0.01 in Snow Light Snow
1:53 AM 24.1 °F 16.0 °F 21.0 °F 88% 29.62 in 3.0 mi SE 6.9 mph - 0.01 in Snow Light Snow
2:00 AM 24.8 °F 17.9 °F 21.2 °F 86% 29.58 in 5.0 mi SE 5.8 mph - 0.00 in Snow Light Snow
2:21 AM 24.8 °F 19.1 °F 21.2 °F 86% 29.59 in 2.5 mi SE 4.6 mph - 0.00 in Snow Light Snow
2:34 AM 24.8 °F 16.9 °F 21.2 °F 86% 29.59 in 4.0 mi SE 6.9 mph - 0.00 in Snow Light Snow
2:53 AM 23.0 °F 14.7 °F 19.9 °F 88% 29.64 in 5.0 mi SE 6.9 mph - 0.00 in Snow Light Snow
3:53 AM 23.0 °F - 19.9 °F 88% 29.66 in 7.0 mi Calm Calm - N/A Snow Light Snow
4:53 AM 23.0 °F - 19.9 °F 88% 29.66 in 10.0 mi Calm Calm - 0.00 in   Overcast
5:00 AM 23.0 °F - 19.4 °F 86% 29.61 in 10.0 mi Calm Calm - N/A   Overcast
5:53 AM 23.0 °F 17.0 °F 18.0 °F 81% 29.66 in 10.0 mi ESE 4.6 mph - N/A   Overcast
6:53 AM 23.0 °F - 19.9 °F 88% 29.66 in 10.0 mi Calm Calm - N/A   Overcast
7:53 AM 21.9 °F 17.2 °F 19.9 °F 92% 29.67 in 10.0 mi WNW 3.5 mph - N/A   Overcast
8:53 AM 21.0 °F - 19.0 °F 92% 29.68 in 10.0 mi Calm Calm - N/A   Overcast
9:16 AM 21.2 °F - 17.6 °F 86% 29.64 in 10.0 mi Calm Calm - N/A   Overcast
9:53 AM 21.0 °F - 17.1 °F 85% 29.69 in 10.0 mi Calm Calm - N/A   Overcast
10:53 AM 21.0 °F - 17.1 °F 85% 29.69 in 10.0 mi Calm Calm - N/A   Overcast
11:53 AM 21.0 °F - 18.0 °F 88% 29.69 in 10.0 mi Calm Calm - N/A   Overcast
12:53 PM 21.9 °F - 18.0 °F 85% 29.69 in 10.0 mi Calm Calm - 0.00 in Snow Light Snow
1:53 PM 21.9 °F - 19.0 °F 89% 29.68 in 10.0 mi Calm Calm - 0.00 in   Mostly Cloudy
2:35 PM 21.2 °F 16.4 °F 17.6 °F 86% 29.63 in 10.0 mi NNE 3.5 mph - N/A   Mostly Cloudy
2:53 PM 21.9 °F 14.5 °F 16.0 °F 78% 29.68 in 10.0 mi NNE 5.8 mph - N/A   Mostly Cloudy
3:53 PM 19.9 °F 14.9 °F 15.1 °F 81% 29.67 in 10.0 mi NE 3.5 mph - N/A   Mostly Cloudy
4:53 PM 19.0 °F 12.3 °F 14.0 °F 81% 29.66 in 10.0 mi NNE 4.6 mph - N/A   Mostly Cloudy
5:53 PM 16.0 °F 10.4 °F 12.0 °F 84% 29.65 in 10.0 mi NNE 3.5 mph - N/A   Mostly Cloudy
6:53 PM 10.9 °F - 9.0 °F 92% 29.65 in 10.0 mi Calm Calm - N/A   Mostly Cloudy
7:53 PM 10.9 °F - 9.0 °F 92% 29.63 in 10.0 mi Calm Calm - N/A   Mostly Cloudy
8:53 PM 16.0 °F 6.3 °F 10.9 °F 81% 29.62 in 10.0 mi NNE 6.9 mph - N/A   Overcast
9:53 PM 15.1 °F 5.2 °F 10.0 °F 80% 29.60 in 10.0 mi NNE 6.9 mph - N/A   Mostly Cloudy
10:53 PM 15.1 °F 4.2 °F 10.0 °F 80% 29.59 in 10.0 mi NNE 8.1 mph - N/A   Mostly Cloudy
11:53 PM 15.1 °F 3.3 °F 10.0 °F 80% 29.57 in 10.0 mi NNE 9.2 mph - N/A   Mostly Cloudy